Spokane, WA

1:23 PM PST on February 23, 2017 (GMT -0800)
Felts

Weather History for KSFF - October, 2013

Change the Weather History Date:

Friday, October 11, 2013

  Actual Average Record
Temperature  
Mean Temperature 46 °F 50 °F  
Max Temperature 57 °F 62 °F 73 °F (2012)
Min Temperature 34 °F 38 °F 26 °F (2008)
Degree Days  
Heating Degree Days 19 15  
Month to date heating degree days 181 142  
Since 1 July heating degree days 315 353  
Cooling Degree Days 0 0  
Month to date cooling degree days 0 0  
Year to date cooling degree days 704 406  
Moisture  
Dew Point 35 °F    
Average Humidity 69    
Maximum Humidity 100    
Minimum Humidity 38    
Precipitation  
Precipitation 0.00 in 0.04 in 0.04 in (2011)
Month to date precipitation 0.12 0.37  
Year to date precipitation 11.80 11.95  
Sea Level Pressure  
Sea Level Pressure 30.07 in    
Wind  
Wind Speed 1 mph (NE)    
Max Wind Speed 6 mph    
Max Gust Speed 7 mph    
Visibility 5 miles    
Events Fog    
T = Trace of Precipitation, MM = Missing Value Source: NWS Daily Summary

Daily Weather History Graph

Daily Weather History Graph

Search for Another Location

Airport or City:

Trip Planner

Search our weather history database for the weather conditions in past years. The results will help you decide how hot, cold, wet, or windy it might be!

Date:

Astronomy

Oct. 11, 2013 Rise Set
Actual Time 7:02 AM PDT 6:08 PM PDT
Civil Twilight 6:31 AM PDT 6:39 PM PDT
Nautical Twilight 5:56 AM PDT 7:14 PM PDT
Astronomical Twilight 5:20 AM PDT 7:50 PM PDT
Moon 2:01 PM PDT (10/11) 11:46 PM PDT (10/11)
Length of Visible Light 12h 07m
Length of Day
11h 05m
Waxing Crescent, 48% of the Moon is Illuminated
Oct 11
Waxing Crescent
Oct 11
First Quarter
Oct 18
Full
Oct 26
Last Quarter
Nov 3
New

Hourly Weather History & Observations

Time (PDT) Temp. Windchill Dew Point Humidity Pressure Visibility Wind Dir Wind Speed Gust Speed Precip Events Conditions
12:21 AM 37.4 °F - 35.6 °F 93% 30.01 in 2.0 mi Calm Calm - N/A   Partly Cloudy
12:37 AM 39.2 °F - 37.4 °F 93% 30.01 in 8.0 mi Calm Calm - N/A   Scattered Clouds
12:53 AM 37.0 °F - 35.1 °F 93% 30.03 in 1.8 mi Calm Calm - N/A   Mostly Cloudy
1:02 AM 37.4 °F - 35.6 °F 93% 30.02 in 4.0 mi Calm Calm - N/A   Scattered Clouds
1:11 AM 37.4 °F - 35.6 °F 93% 30.02 in 2.0 mi Calm Calm - N/A   Scattered Clouds
1:14 AM 37.4 °F - 35.6 °F 93% 30.02 in 0.8 mi Calm Calm - N/A   Scattered Clouds
1:18 AM 37.4 °F - 35.6 °F 93% 30.02 in 0.5 mi Calm Calm - N/A Fog Fog
1:53 AM 36.0 °F 33.3 °F 35.1 °F 97% 30.04 in 0.2 mi NNE 3.5 mph - N/A Fog Fog
2:09 AM 37.4 °F - 35.6 °F 93% 30.03 in 0.8 mi Calm Calm - N/A   Mostly Cloudy
2:15 AM 35.6 °F - 35.6 °F 100% 30.03 in 2.0 mi Calm Calm - N/A   Mostly Cloudy
2:22 AM 35.6 °F - 33.8 °F 93% 30.04 in 1.0 mi Calm Calm - N/A   Mostly Cloudy
2:29 AM 35.6 °F - 33.8 °F 93% 30.04 in 3.0 mi Calm Calm - N/A   Mostly Cloudy
2:48 AM 35.6 °F - 35.6 °F 100% 30.04 in 0.8 mi Calm Calm - N/A   Overcast
2:53 AM 36.0 °F - 34.0 °F 93% 30.06 in 0.2 mi Calm Calm - N/A Fog Fog
3:13 AM 35.6 °F - 33.8 °F 93% 30.04 in 0.8 mi Calm Calm - N/A   Overcast
3:26 AM 35.6 °F - 35.6 °F 100% 30.04 in 0.2 mi Calm Calm - N/A Fog Fog
3:53 AM 37.0 °F - 36.0 °F 96% 30.06 in 0.2 mi Calm Calm - N/A Fog Fog
4:07 AM 35.6 °F - 35.6 °F 100% 30.05 in 1.0 mi Calm Calm - N/A   Overcast
4:21 AM 35.6 °F - 33.8 °F 93% 30.06 in 0.8 mi Calm Calm - N/A   Overcast
4:28 AM 35.6 °F - 35.6 °F 100% 30.06 in 2.0 mi Calm Calm - N/A   Overcast
4:36 AM 35.6 °F - 35.6 °F 100% 30.06 in 4.0 mi Calm Calm - N/A   Overcast
4:50 AM 35.6 °F - 33.8 °F 93% 30.07 in 6.0 mi Calm Calm - N/A   Overcast
4:53 AM 36.0 °F - 34.0 °F 93% 30.08 in 7.0 mi Calm Calm - N/A   Overcast
5:03 AM 35.6 °F - 33.8 °F 93% 30.07 in 2.5 mi Calm Calm - N/A   Overcast
5:06 AM 35.6 °F - 35.6 °F 100% 30.07 in 1.0 mi Calm Calm - N/A   Overcast
5:09 AM 35.6 °F - 35.6 °F 100% 30.07 in 0.5 mi Calm Calm - N/A Fog Fog
5:41 AM 37.4 °F - 35.6 °F 93% 30.08 in 0.8 mi Calm Calm - N/A   Overcast
5:43 AM 37.4 °F - 35.6 °F 93% 30.08 in 1.0 mi Calm Calm - N/A   Overcast
5:49 AM 37.4 °F - 35.6 °F 93% 30.08 in 3.0 mi Calm Calm - N/A   Overcast
5:53 AM 37.0 °F - 36.0 °F 96% 30.09 in 8.0 mi Calm Calm - N/A Fog Shallow Fog
6:53 AM 37.0 °F - 35.1 °F 93% 30.11 in 7.0 mi Calm Calm - N/A Fog Shallow Fog
7:53 AM 37.0 °F 34.5 °F 35.1 °F 93% 30.13 in 7.0 mi WSW 3.5 mph - N/A Fog Shallow Fog
8:51 AM 37.4 °F - 35.6 °F 93% 30.11 in 4.0 mi Calm Calm - N/A   Overcast
8:53 AM 39.0 °F - 36.0 °F 89% 30.14 in 4.0 mi Calm Calm - N/A   Overcast
9:53 AM 39.9 °F 37.8 °F 37.0 °F 89% 30.16 in 4.0 mi NE 3.5 mph - N/A   Overcast
10:53 AM 44.1 °F - 37.9 °F 79% 30.15 in 8.0 mi Calm Calm - N/A   Scattered Clouds
11:53 AM 48.0 °F - 39.0 °F 71% 30.14 in 10.0 mi Calm Calm - N/A   Partly Cloudy
12:53 PM 52.0 °F - 37.0 °F 57% 30.12 in 10.0 mi Calm Calm - N/A   Partly Cloudy
1:53 PM 55.0 °F - 32.0 °F 42% 30.10 in 10.0 mi Calm Calm - N/A   Scattered Clouds
2:53 PM 55.9 °F - 30.0 °F 37% 30.09 in 10.0 mi Calm Calm - N/A   Scattered Clouds
3:53 PM 55.9 °F - 30.0 °F 37% 30.09 in 10.0 mi Calm Calm - N/A   Clear
4:53 PM 54.0 °F - 33.1 °F 45% 30.08 in 10.0 mi ENE 4.6 mph - N/A   Mostly Cloudy
5:53 PM 51.1 °F - 36.0 °F 56% 30.08 in 10.0 mi Calm Calm - N/A   Mostly Cloudy
6:53 PM 50.0 °F - 37.0 °F 61% 30.08 in 10.0 mi Calm Calm - N/A   Overcast
7:53 PM 48.9 °F - 34.0 °F 56% 30.08 in 10.0 mi NE 3.5 mph - N/A   Overcast
8:53 PM 46.9 °F - 36.0 °F 66% 30.07 in 10.0 mi NNE 3.5 mph - N/A   Mostly Cloudy
9:53 PM 44.1 °F - 36.0 °F 73% 30.08 in 10.0 mi Calm Calm - N/A   Mostly Cloudy
10:53 PM 44.1 °F - 37.0 °F 76% 30.07 in 10.0 mi Calm Calm - N/A   Overcast
11:53 PM 43.0 °F - 37.0 °F 80% 30.06 in 10.0 mi Calm Calm - N/A   Mostly Cloudy